Location: Giessh�bl
(48.3167°N, 15.3667°E)
Time: 21:14:55
(UTC+00:00)

Daily predictions for brighter satellites

Satellite Brightness Start Highest point End
(mag) Time Altitude Azimuth Time Altitude Azimuth Time Altitude Azimuth
USA 307 3.0 15:34:47 10° SW 15:39:03 75° SSE 15:43:20 10° ENE
SMAP 3.5 15:35:56 10° SE 15:40:15 39° ENE 15:44:35 10° N
H-2A R/B 3.0 15:36:11 10° ESE 15:40:19 24° ENE 15:44:23 10° N
Cosmos 1766 Rocket 3.5 15:36:11 10° N 15:40:32 68° E 15:44:52 10° SSE
Meteor PRIRODA 3.6 15:36:57 10° SSE 15:40:33 60° ENE 15:44:08 10° N
Cosmos 1862 3.3 15:37:17 10° N 15:41:16 65° E 15:45:13 10° SSE
Cosmos 1939 Rocket 3.4 15:38:06 10° SE 15:41:57 39° ENE 15:45:48 10° N
ERBS 3.1 15:40:40 10° SSW 15:43:38 36° SE 15:46:37 10° ENE
Cosmos 1606 3.3 15:40:58 10° SSE 15:44:24 35° E 15:47:52 10° NNE
FengYun 1-2 T 4.3 15:39:23 10° SSE 15:44:52 58° ENE 15:50:19 10° N
Cosmos 44 3.6 15:43:16 10° NNW 15:47:56 43° NE 15:52:19 10° ESE
ATLAS CENTAUR R/B 1.5 15:43:57 10° SW 15:48:03 79° NW 15:52:32 10° NE
Cosmos 2221 3.1 15:45:52 10° SSE 15:49:46 36° E 15:53:44 10° NNE
Cosmos 2098 Rocket 4.4 15:45:01 10° N 15:51:25 84° W 15:58:41 10° S
COSMO-SKYMED 1 4.3 15:52:36 10° ENE 15:54:50 14° E 15:57:04 10° ESE
CZ-2C R/B 4.0 15:53:20 10° NE 15:56:50 18° E 16:00:16 10° SE
NOAA 12 4.1 15:51:59 10° SSE 15:57:19 84° ENE 16:02:41 10° NNW
CZ-4C R/B 3.7 15:52:41 10° NW 15:58:13 28° NNE 16:04:35 10° ENE
USA 308 2.9 15:57:01 10° WSW 16:01:17 83° NNW 16:05:10 12° ENE
Okean O Rocket 2.8 16:01:05 10° ESE 16:04:23 21° ENE 16:07:43 10° NNE
ISS -3.2 16:06:07 10° W 16:09:25 48° N 16:11:56 16° ENE
Cosmos 1464 Rocket 4.0 16:05:55 10° S 16:12:15 75° E 16:18:38 10° NNE
YAOGAN 1 4.3 16:13:14 13° NE 16:13:14 13° NE 16:14:51 10° NNE
NOAA 6 4.0 16:08:35 10° SSE 16:13:44 79° ENE 16:18:54 10° NNW
Cosmos 1461 4.0 16:10:34 10° WSW 16:14:33 40° NW 16:18:25 10° NNE
Cosmos 1408 Rocket 3.5 16:15:03 10° N 16:19:25 82° E 16:23:47 10° SSE
Cosmos 2084 4.0 16:15:26 10° NNW 16:19:26 38° NE 16:23:05 13° ESE
Cosmos 1271 Rocket 3.6 16:16:30 10° SSW 16:20:20 53° WNW 16:24:16 10° N
NOSS 2-1 (E) 3.4 16:18:06 10° SW 16:21:18 54° NW 16:24:04 14° NNE
GEOS 3 Rocket 3.9 16:17:13 10° ESE 16:22:12 46° NE 16:27:08 10° NNW
CZ-4 R/B 3.5 16:24:22 11° NNE 16:24:22 11° NNE 16:24:40 10° NNE
CZ-4B R/B 4.0 16:18:33 10° S 16:22:37 48° W 16:26:30 10° NNW
Cosmos 1743 Rocket 3.7 16:19:33 10° N 16:23:47 49° ENE 16:27:59 10° SSE
Cosmos 1697 Rocket 3.1 16:18:39 10° NNW 16:23:58 41° NE 16:29:14 10° ESE
Cosmos 1980 Rocket 3.2 16:20:53 10° NNW 16:25:38 26° NE 16:28:49 16° E
Cosmos 1937 Rocket 4.1 16:21:12 10° N 16:26:04 34° ENE 16:30:53 10° ESE
Cosmos 1782 4.1 16:23:40 10° SE 16:26:38 20° E 16:26:58 20° E
Nadezhda 4 Rocket 4.0 16:20:48 10° N 16:27:09 81° E 16:33:29 10° S
USA 267 3.5 16:21:33 13° NE 16:27:20 65° NNW 16:33:47 10° WSW
Cosmos 1763 Rocket 4.0 16:23:04 10° SSE 16:27:39 36° ESE 16:31:14 16° NE
Lacrosse 5 4.0 16:23:16 10° WNW 16:27:41 30° SW 16:32:05 10° S
deb Kosmos-1763 3.9 16:24:23 10° SSW 16:27:47 83° WNW 16:30:54 12° NNE
SL-16 R/B 4.0 16:26:36 10° N 16:29:03 13° NNE 16:29:48 12° NE
Cosmos 1656 3.6 16:24:47 10° NNW 16:30:20 80° ENE 16:35:55 10° SSE
USA 305 3.2 16:26:32 10° W 16:30:42 57° NNW 16:33:22 21° NE
CZ-2C R/B 4.1 16:26:04 10° S 16:30:53 45° W 16:35:31 10° NNW
CZ-4B DEB 4.2 16:27:30 10° SSE 16:33:03 88° ENE 16:38:35 10° NNW
Cosmos 1340 Rocket 2.7 16:32:20 10° N 16:36:26 80° E 16:40:30 10° SSE
Cosmos 2082 Rocket 3.6 16:33:02 10° SE 16:36:39 17° E 16:36:39 17° E
Cosmos 1092 Rocket 4.0 16:31:08 10° N 16:37:25 60° ENE 16:43:40 10° SSE
Cosmos 1809 Rocket 4.5 16:32:33 10° N 16:38:34 54° ENE 16:44:30 10° SSE
USA 229 DEB 3.9 16:31:44 10° NW 16:38:58 67° NE 16:46:42 10° SE
USA 229 3.9 16:31:50 10° NW 16:39:04 67° NE 16:46:47 10° SE
COSMOS 2406 4.0 16:36:37 10° SSE 16:41:36 31° ESE 16:43:56 23° ENE
Cosmos 990 Rocket 3.9 16:36:29 10° NNW 16:41:43 75° ENE 16:46:53 10° SSE
SKYMED 2 4.0 16:40:36 19° NE 16:43:20 39° E 16:47:23 10° SSE
Lacrosse 5 rocket 2.7 16:41:03 10° NW 16:44:09 23° N 16:45:17 20° NNE
Cosmos 1602 3.8 16:43:01 10° N 16:46:47 51° ENE 16:50:32 10° SSE
ATLAS 2AS CENTAUR R/B 4.2 16:40:03 10° W 16:46:48 31° NNW 16:52:29 13° NE
USA 276 2.0 16:43:44 10° WNW 16:46:52 89° SSW 16:47:51 41° ESE
ATLAS CENTAUR R/B 3.2 16:38:45 10° SSW 16:48:34 53° SE 16:50:57 28° ENE
PAYLOAD B 4.3 16:43:02 10° SSE 16:48:40 88° WSW 16:54:19 10° NNW
Cosmos 1933 3.4 16:44:50 10° S 16:48:46 51° E 16:51:18 20° NNE
Cosmos 1428 Rocket 4.4 16:43:57 10° N 16:50:03 64° ENE 16:56:08 10° SSE
SJ 16-02 3.5 16:46:28 10° NW 16:50:14 28° W 16:53:59 10° SSW
Cosmos 372 Rocket 4.5 16:48:25 10° N 16:53:15 36° ENE 16:55:11 27° E
Cosmos 1500 Rocket 3.7 16:49:46 10° NNW 16:54:15 77° W 16:58:39 10° S
Cosmos 1627 Rocket 4.4 16:48:57 10° N 16:55:09 68° ENE 17:01:16 10° SSE
Cosmos 2034 Rocket 4.1 16:49:34 10° SSW 16:55:45 77° W 17:01:56 10° N
CZ-2D R/B 3.8 16:57:23 10° S 17:01:11 60° W 17:05:00 10° NNW
NOSS 3-1 (A) 4.0 16:55:00 10° NW 17:02:26 89° NE 17:11:10 10° SE
USA 306 3.5 16:58:35 10° W 17:02:41 45° NNW 17:04:00 34° NNE
Meteor 1-20 Rocket 4.4 16:58:38 10° NNW 17:04:27 78° W 17:10:17 10° S
Cosmos 1805 Rocket 3.4 17:00:45 10° N 17:05:07 84° E 17:09:27 10° S
Cosmos 1833 Rocket 2.6 17:03:41 10° SSW 17:09:12 62° ESE 17:11:51 31° NE
Cosmos 2360 4.1 17:04:50 10° NNW 17:10:37 78° ENE 17:16:21 10° SSE
Cosmos 2279 Rocket 4.2 17:05:18 10° SSE 17:11:10 46° E 17:16:36 12° NNE
NOSS 2-2 (D) 4.3 17:08:11 10° NW 17:13:02 54° NE 17:15:23 35° ESE
CZ-4B R/B 3.3 17:07:54 10° SSE 17:13:23 79° WSW 17:18:47 10° NNW
Meteor 1-14 Rocket 4.3 17:08:34 10° N 17:14:14 54° ENE 17:19:57 10° SSE
NOSS 2-2 (E) 4.3 17:09:27 10° NW 17:14:31 65° NE 17:18:12 27° ESE
Sich 1 2.8 17:12:01 10° N 17:16:19 86° E 17:20:36 10° S
ARGOS 3.1 17:12:13 10° SSE 17:17:40 90° ENE 17:23:07 10° NNW
USA 307 3.5 17:15:06 10° W 17:19:12 43° NNW 17:19:51 40° NNE
H-2A R/B 2.7 17:14:18 10° S 17:19:26 55° W 17:24:28 10° NNW
ERBS 3.4 17:16:33 10° W 17:19:27 35° NNW 17:19:27 35° NNW
Cosmos 1898 Rocket 3.7 17:15:08 10° NNW 17:20:24 72° WSW 17:25:36 10° SSE
MOS 1-B Rocket 4.0 17:14:50 10° NNE 17:20:33 82° WNW 17:26:53 10° SSW
Cosmos 1634 Rocket 3.9 17:14:55 10° S 17:21:14 83° E 17:27:36 10° N
SL-24 R/B - RUBIN 2 3.9 17:19:07 10° NNW 17:23:12 47° NNE 17:23:12 47° NNE
Cosmos 1655 Rocket 4.4 17:19:22 10° N 17:24:56 40° ENE 17:24:56 40° ENE
COSMOS 2455 3.1 17:19:58 10° S 17:25:36 43° ESE 17:25:53 43° ESE
Cosmos 468 Rocket 4.0 17:22:26 10° SSW 17:27:35 76° WNW 17:30:21 28° NNE
Landsat 5 3.3 17:27:18 74° NE 17:27:36 80° ESE 17:31:42 10° SSW
ATLAS CENTAUR R/B 3.6 17:24:33 10° WNW 17:27:41 19° NNW 17:29:27 16° N
COSMO-SKYMED 1 2.8 17:29:13 27° N 17:31:29 70° WNW 17:35:48 10° SSW
Meteor 2-16 Rocket 4.3 17:26:00 10° N 17:32:08 73° E 17:38:14 10° SSE
Cosmos 2026 Rocket 4.3 17:28:26 10° NNW 17:34:34 66° W 17:40:35 10° S
SL-08 RB Rocket 3.7 17:31:00 10° SSE 17:35:41 85° W 17:40:20 10° NNW
Cosmos 540 Rocket 3.3 17:31:07 10° SSW 17:36:13 81° ESE 17:37:03 62° NE
CZ-2C R/B 2.8 17:32:51 12° N 17:37:42 70° WNW 17:42:49 10° SSW
Okean O Rocket 2.4 17:36:05 10° S 17:40:24 51° W 17:44:47 10° NNW
Cosmos 1500 3.8 17:36:56 10° NNW 17:44:46 - S 17:40:06 50° WNW
USA 308 3.9 17:37:33 10° WNW 17:41:12 38° NNW 17:41:12 38° NNW
Cosmos 2360 Rocket 4.2 17:39:52 10° N 17:41:19 14° N 17:41:19 14° N
ISS -1.7 17:43:12 10° WNW 17:44:55 26° WNW 17:44:55 26° WNW
CZ-4C R/B 2.9 17:41:06 10° NW 17:48:04 64° NE 17:49:48 52° E
YAOGAN 1 3.9 17:50:23 30° NNW 17:50:23 30° NNW 17:52:36 10° NNW
Cosmos 2180 Rocket 4.4 17:42:01 10° S 17:48:18 67° E 17:49:36 54° NE
Meteor 1-5 Rocket 4.3 17:49:23 10° NNW 17:55:24 85° W 18:01:21 10° S
CZ-4 R/B 3.9 18:00:22 14° NNW 18:00:22 14° NNW 18:01:01 10° NNW
Cosmos 2369 4.0 17:54:12 10° NNW 17:59:53 65° WSW 18:02:24 33° S
Cosmos 2322 Rocket 3.9 17:55:29 10° NNW 17:57:35 20° N 17:57:35 20° N
Cosmos 1782 4.2 17:58:56 10° SW 18:02:36 37° WNW 18:02:36 37° WNW
Cosmos 1697 Rocket 4.0 18:02:45 10° NW 18:07:54 38° WSW 18:13:01 10° S
USA 267 3.9 18:08:54 40° NNE 18:09:48 42° N 18:15:52 10° WNW
Cosmos 1980 Rocket 2.4 18:04:30 10° NNW 18:10:09 68° WSW 18:10:40 64° SSW
NOSS 2-2 (C) 4.4 18:05:12 10° NW 18:10:22 74° SW 18:10:59 68° S
Cosmos 841 Rocket 3.8 18:05:42 10° SSW 18:10:09 60° WSW 18:10:09 60° WSW
SL-16 R/B 3.8 18:09:17 10° NNW 18:11:40 24° N 18:11:40 24° N
Cosmos 2082 Rocket 2.7 18:14:18 10° SSW 18:18:33 52° SW 18:18:33 52° SW
Lacrosse 5 rocket 4.0 18:20:17 10° NW 18:20:53 14° NW 18:20:53 14° NW
COSMOS 2406 3.9 18:20:05 10° SW 18:25:40 50° NW 18:26:02 49° NW
Cosmos 2278 4.3 18:20:17 10° NNW 18:24:48 54° NW 18:24:48 54° NW
ATLAS 2AS CENTAUR R/B 4.3 18:34:07 10° NW 18:39:54 25° N 18:39:54 25° N
Cosmos 1833 Rocket 4.4 18:48:46 10° WSW 18:53:34 28° NW 18:53:35 28° NW
COSMOS 2455 4.5 19:05:50 10° WSW 19:09:04 29° W 19:09:04 29° W
CZ-4C R/B 4.1 19:29:48 10° NW 19:35:02 38° W 19:35:02 38° W
